Radioactive Concentration measured by Seawater Radiation Monitor near Fukushima Daiichi Nuclear Power Station
Date,Time,Cs137(Bq/L),Cs134(Bq/L),Total β(Bq/L)
2017/01/07,00:00,0.52,0.087,ND
2017/01/07,00:10,0.51,0.090,ND
2017/01/07,00:20,0.54,0.091,8.8
2017/01/07,00:30,0.68,0.043,ND
2017/01/07,00:40,0.66,0.046,ND
2017/01/07,00:50,0.55,0.084,9.5
2017/01/07,01:00,0.58,0.078,9.7
2017/01/07,01:10,0.58,0.067,ND
2017/01/07,01:20,0.55,0.068,ND
2017/01/07,01:30,0.55,0.065,ND
2017/01/07,01:40,0.56,0.061,ND
2017/01/07,01:50,0.56,0.056,ND
2017/01/07,02:00,0.64,0.050,ND
2017/01/07,02:10,0.51,0.085,ND
2017/01/07,02:20,0.52,0.078,ND
2017/01/07,02:30,0.53,0.072,9.7
2017/01/07,02:40,0.64,0.051,10
2017/01/07,02:50,0.51,0.079,ND
2017/01/07,03:00,0.53,0.073,8.8
2017/01/07,03:10,0.56,0.068,ND
2017/01/07,03:20,0.58,0.072,ND
2017/01/07,03:30,0.57,0.074,ND
2017/01/07,03:40,0.60,0.072,ND
2017/01/07,03:50,0.62,0.075,ND
2017/01/07,04:00,0.62,0.070,ND
2017/01/07,04:10,0.59,0.075,ND
2017/01/07,04:20,0.59,0.077,ND
2017/01/07,04:30,0.59,0.081,ND
2017/01/07,04:40,0.56,0.089,ND
2017/01/07,04:50,0.55,0.079,ND
2017/01/07,05:00,0.56,0.078,ND
2017/01/07,05:10,0.71,0.041,ND
2017/01/07,05:20,0.69,0.046,ND
2017/01/07,05:30,0.67,0.044,ND
2017/01/07,05:40,0.69,0.038,ND
2017/01/07,05:50,0.68,0.051,ND
2017/01/07,06:00,0.69,0.047,ND
2017/01/07,06:10,0.69,0.043,ND
2017/01/07,06:20,0.57,0.069,ND
2017/01/07,06:30,0.56,0.070,ND
2017/01/07,06:40,0.56,0.069,ND
2017/01/07,06:50,0.56,0.061,ND
2017/01/07,07:00,0.53,0.069,ND
2017/01/07,07:10,0.53,0.073,ND
2017/01/07,07:20,0.54,0.076,ND
2017/01/07,07:30,0.58,0.072,ND
2017/01/07,07:40,0.72,0.052,ND
2017/01/07,07:50,0.59,0.081,ND
2017/01/07,08:00,0.59,0.086,ND
2017/01/07,08:10,0.59,0.096,ND
2017/01/07,08:20,0.61,0.087,9.7
2017/01/07,08:30,0.59,0.080,9.0
2017/01/07,08:40,0.56,0.086,11
2017/01/07,08:50,0.56,0.086,10
2017/01/07,09:00,0.56,0.090,10
2017/01/07,09:10,0.64,0.052,ND
2017/01/07,09:20,0.50,0.10,ND
2017/01/07,09:30,0.60,0.069,ND
2017/01/07,09:40,0.51,0.096,ND
2017/01/07,09:50,0.53,0.099,ND
2017/01/07,10:00,0.55,0.089,ND
2017/01/07,10:10,0.57,0.086,ND
2017/01/07,10:20,0.57,0.084,ND
2017/01/07,10:30,0.61,0.075,ND
2017/01/07,10:40,0.74,0.044,ND
2017/01/07,10:50,0.72,0.040,ND
2017/01/07,11:00,0.61,0.075,ND
2017/01/07,11:10,0.60,0.071,ND
2017/01/07,11:20,0.70,0.037,ND
2017/01/07,11:30,0.56,0.081,ND
2017/01/07,11:40,0.53,0.083,ND
2017/01/07,11:50,0.54,0.072,9.0
2017/01/07,12:00,0.54,0.071,ND
2017/01/07,12:10,0.56,0.062,8.9
2017/01/07,12:20,0.57,0.058,ND
2017/01/07,12:30,0.58,0.065,ND
2017/01/07,12:40,0.57,0.063,ND
2017/01/07,12:50,0.55,0.074,ND
2017/01/07,13:00,0.55,0.079,ND
2017/01/07,13:10,0.52,0.087,ND
2017/01/07,13:20,0.51,0.088,ND
2017/01/07,13:30,0.52,0.081,ND
2017/01/07,13:40,0.54,0.079,ND
2017/01/07,13:50,0.54,0.078,ND
2017/01/07,14:00,0.66,0.054,ND
2017/01/07,14:10,0.52,0.089,ND
2017/01/07,14:20,0.69,0.060,ND
2017/01/07,14:30,0.68,0.066,8.8
2017/01/07,14:40,0.67,0.066,9.0
2017/01/07,14:50,0.68,0.065,10
2017/01/07,15:00,0.57,0.091,9.6
2017/01/07,15:10,0.59,0.086,11
2017/01/07,15:20,0.58,0.073,10
2017/01/07,15:30,0.71,0.043,ND
2017/01/07,15:40,0.71,0.049,10
2017/01/07,15:50,0.72,0.056,9.5
2017/01/07,16:00,0.70,0.049,10
2017/01/07,16:10,0.71,0.050,9.6
2017/01/07,16:20,0.71,0.063,ND
2017/01/07,16:30,0.74,0.057,ND
2017/01/07,16:40,0.64,0.076,ND
2017/01/07,16:50,0.64,0.078,ND
2017/01/07,17:00,0.66,0.079,ND
2017/01/07,17:10,0.65,0.082,ND
2017/01/07,17:20,0.66,0.081,ND
2017/01/07,17:30,0.78,0.065,ND
2017/01/07,17:40,0.76,0.064,ND
2017/01/07,17:50,0.78,0.057,ND
2017/01/07,18:00,0.77,0.052,9.3
2017/01/07,18:10,0.78,0.057,ND
2017/01/07,18:20,0.79,0.053,ND
2017/01/07,18:30,0.76,0.053,ND
2017/01/07,18:40,0.74,0.058,8.8
2017/01/07,18:50,0.74,0.061,ND
2017/01/07,19:00,0.72,0.069,ND
2017/01/07,19:10,0.61,0.087,ND
2017/01/07,19:20,0.73,0.065,9.7
2017/01/07,19:30,0.76,0.056,ND
2017/01/07,19:40,0.78,0.053,ND
2017/01/07,19:50,0.77,0.050,ND
2017/01/07,20:00,0.68,0.074,ND
2017/01/07,20:10,0.66,0.079,ND
2017/01/07,20:20,0.66,0.072,ND
2017/01/07,20:30,0.63,0.082,9.6
2017/01/07,20:40,0.72,0.048,8.8
2017/01/07,20:50,0.71,0.047,9.0
2017/01/07,21:00,0.70,0.050,11
2017/01/07,21:10,0.68,0.050,11
2017/01/07,21:20,0.54,0.088,ND
2017/01/07,21:30,0.54,0.098,ND
2017/01/07,21:40,0.69,0.055,ND
2017/01/07,21:50,0.69,0.069,ND
2017/01/07,22:00,0.71,0.066,ND
2017/01/07,22:10,0.69,0.072,ND
2017/01/07,22:20,0.70,0.069,ND
2017/01/07,22:30,0.69,0.059,ND
2017/01/07,22:40,0.70,0.061,ND
2017/01/07,22:50,0.70,0.053,ND
2017/01/07,23:00,0.73,0.043,ND
2017/01/07,23:10,0.72,0.054,ND
2017/01/07,23:20,0.73,0.045,ND
2017/01/07,23:30,0.74,0.046,ND
2017/01/07,23:40,0.74,0.035,ND
2017/01/07,23:50,0.74,0.033,ND
